Radiation Dose at Monitoring Post of Fukushima Daini Nuclear Power Station
Date,Time,MP-1(microSv/h),MP-2(microSv/h),MP-3(microSv/h),MP-4(microSv/h),MP-5(microSv/h),MP-6(microSv/h),MP-7(microSv/h),Wind Direction,Wind Velocity(m/s),Rain
2015/04/10,00:00,0.544,0.331,0.563,0.518,0.551,0.251,0.222,north-northwest,5.1,No
2015/04/10,00:10,0.542,0.331,0.564,0.519,0.551,0.250,0.222,north-northwest,4.8,No
2015/04/10,00:20,0.542,0.331,0.562,0.518,0.553,0.250,0.223,north-northwest,5.1,No
2015/04/10,00:30,0.542,0.333,0.563,0.519,0.552,0.250,0.223,north-northwest,5.6,No
2015/04/10,00:40,0.543,0.333,0.561,0.519,0.550,0.250,0.223,north,5.8,No
2015/04/10,00:50,0.540,0.332,0.564,0.519,0.550,0.250,0.222,north-northwest,4.3,No
2015/04/10,01:00,0.541,0.333,0.562,0.519,0.553,0.249,0.223,north-northwest,3.8,No
2015/04/10,01:10,0.543,0.332,0.563,0.520,0.553,0.249,0.223,north-northwest,4.7,No
2015/04/10,01:20,0.542,0.330,0.563,0.519,0.551,0.252,0.223,north-northwest,5.6,No
2015/04/10,01:30,0.540,0.332,0.564,0.519,0.550,0.250,0.223,north,5.4,No
2015/04/10,01:40,0.541,0.331,0.563,0.520,0.552,0.251,0.223,north,5.8,No
2015/04/10,01:50,0.542,0.331,0.562,0.520,0.552,0.249,0.223,north-northwest,5.6,No
2015/04/10,02:00,0.540,0.332,0.564,0.519,0.551,0.250,0.222,north-northwest,5.7,No
2015/04/10,02:10,0.540,0.331,0.563,0.520,0.550,0.251,0.222,north-northwest,5.9,No
2015/04/10,02:20,0.543,0.332,0.562,0.521,0.552,0.251,0.223,north,6.3,No
2015/04/10,02:30,0.543,0.330,0.563,0.520,0.551,0.250,0.223,north,6.3,No
2015/04/10,02:40,0.540,0.332,0.563,0.519,0.552,0.249,0.223,north,6.2,No
2015/04/10,02:50,0.541,0.331,0.564,0.518,0.550,0.249,0.223,north,6.4,No
2015/04/10,03:00,0.544,0.331,0.562,0.520,0.551,0.251,0.224,north,6.4,No
2015/04/10,03:10,0.540,0.331,0.561,0.519,0.552,0.250,0.222,north,6.8,No
2015/04/10,03:20,0.542,0.332,0.563,0.519,0.551,0.251,0.223,north-northwest,7.0,No
2015/04/10,03:30,0.543,0.331,0.564,0.520,0.552,0.250,0.222,north-northwest,6.7,No
2015/04/10,03:40,0.541,0.333,0.562,0.520,0.552,0.250,0.221,north-northwest,6.7,No
2015/04/10,03:50,0.541,0.331,0.562,0.522,0.554,0.251,0.222,north-northwest,6.3,No
2015/04/10,04:00,0.542,0.331,0.565,0.520,0.551,0.250,0.222,north-northwest,6.4,No
2015/04/10,04:10,0.544,0.332,0.564,0.519,0.551,0.250,0.222,north-northwest,6.1,No
2015/04/10,04:20,0.543,0.332,0.563,0.519,0.551,0.250,0.221,north-northwest,5.9,No
2015/04/10,04:30,0.543,0.331,0.563,0.519,0.551,0.250,0.223,north,5.5,No
2015/04/10,04:40,0.544,0.330,0.564,0.519,0.552,0.250,0.222,north-northwest,4.8,No
2015/04/10,04:50,0.539,0.333,0.563,0.519,0.552,0.249,0.220,north,5.0,No
2015/04/10,05:00,0.541,0.331,0.562,0.520,0.553,0.252,0.223,north,4.7,No
2015/04/10,05:10,0.543,0.332,0.564,0.520,0.551,0.251,0.223,north,4.7,No
2015/04/10,05:20,0.542,0.331,0.564,0.518,0.554,0.250,0.222,north,5.0,No
2015/04/10,05:30,0.543,0.332,0.562,0.520,0.553,0.251,0.223,north,4.7,No
2015/04/10,05:40,0.544,0.331,0.565,0.520,0.552,0.251,0.222,north,4.3,No
2015/04/10,05:50,0.542,0.332,0.565,0.520,0.551,0.250,0.223,north,4.0,No
2015/04/10,06:00,0.541,0.330,0.563,0.521,0.553,0.249,0.222,north,3.5,No
2015/04/10,06:10,0.543,0.331,0.563,0.519,0.553,0.250,0.222,north,2.8,No
2015/04/10,06:20,0.541,0.333,0.563,0.517,0.550,0.250,0.221,north,2.8,No
2015/04/10,06:30,0.542,0.333,0.561,0.521,0.551,0.250,0.222,north,2.7,No
2015/04/10,06:40,0.541,0.331,0.562,0.522,0.552,0.251,0.222,north,3.3,No
2015/04/10,06:50,0.540,0.331,0.563,0.520,0.552,0.250,0.222,north,3.0,No
2015/04/10,07:00,0.543,0.332,0.561,0.521,0.553,0.251,0.223,north,2.7,No
2015/04/10,07:10,0.543,0.332,0.564,0.519,0.554,0.251,0.221,north,2.8,No
2015/04/10,07:20,0.540,0.332,0.562,0.519,0.552,0.250,0.222,north,2.2,No
2015/04/10,07:30,0.545,0.332,0.563,0.520,0.556,0.250,0.222,north,2.5,No
2015/04/10,07:40,0.543,0.330,0.565,0.518,0.553,0.251,0.222,north,2.2,No
2015/04/10,07:50,0.541,0.332,0.562,0.518,0.549,0.250,0.224,north-northeast,2.2,No
2015/04/10,08:00,0.543,0.332,0.562,0.522,0.556,0.252,0.221,north-northeast,2.3,No
2015/04/10,08:10,0.539,0.331,0.564,0.518,0.553,0.251,0.222,north-northeast,3.3,No
2015/04/10,08:20,0.543,0.332,0.562,0.520,0.554,0.249,0.223,north-northeast,3.0,No
2015/04/10,08:30,0.542,0.331,0.563,0.520,0.554,0.252,0.222,north,2.9,Yes
2015/04/10,08:40,0.543,0.332,0.564,0.518,0.553,0.250,0.222,north,2.3,Yes
2015/04/10,08:50,0.545,0.334,0.561,0.521,0.556,0.250,0.223,north,2.1,Yes
2015/04/10,09:00,0.542,0.332,0.565,0.519,0.555,0.252,0.223,north,3.0,Yes
2015/04/10,09:10,0.542,0.331,0.567,0.521,0.554,0.251,0.224,north,2.6,Yes
2015/04/10,09:20,0.544,0.334,0.562,0.521,0.555,0.252,0.224,north-northwest,3.1,Yes
2015/04/10,09:30,0.542,0.332,0.567,0.520,0.553,0.253,0.224,north-northwest,2.0,Yes
2015/04/10,09:40,0.542,0.334,0.565,0.523,-,0.252,0.225,north-northwest,1.9,Yes
2015/04/10,09:50,0.546,0.334,0.563,0.520,-,0.252,0.224,north-northwest,2.0,Yes
2015/04/10,10:00,0.541,0.332,0.565,0.520,-,0.253,0.225,north-northwest,2.2,Yes
2015/04/10,10:10,0.543,0.334,0.563,0.523,-,0.252,0.223,north-northwest,2.0,Yes
2015/04/10,10:20,0.542,0.334,0.563,0.519,-,0.253,0.225,north-northwest,2.4,Yes
2015/04/10,10:30,0.540,0.331,0.565,0.522,-,0.253,0.224,north-northwest,2.2,Yes
2015/04/10,10:40,0.543,0.333,0.562,0.520,-,0.252,0.224,north-northwest,1.7,Yes
2015/04/10,10:50,0.543,0.333,0.563,0.520,-,0.252,0.224,north-northwest,2.5,Yes
2015/04/10,11:00,0.540,0.332,0.564,0.519,-,0.251,0.223,north,2.4,Yes
2015/04/10,11:10,0.543,0.334,0.561,0.518,-,0.253,0.222,north-northwest,2.0,Yes
2015/04/10,11:20,0.542,0.333,0.563,0.517,-,0.253,0.224,north,2.8,Yes
2015/04/10,11:30,0.540,0.331,0.563,0.521,0.552,0.251,0.224,north-northeast,2.9,Yes
2015/04/10,11:40,0.540,0.333,0.561,0.520,0.551,0.251,0.224,north-northeast,3.6,Yes
2015/04/10,11:50,0.540,0.333,0.565,0.518,0.550,0.253,0.224,north,3.5,Yes
2015/04/10,12:00,0.539,0.332,0.560,0.519,0.551,0.251,0.224,north,3.6,Yes
2015/04/10,12:10,0.540,0.333,0.558,0.516,0.550,0.251,0.223,north,3.3,Yes
2015/04/10,12:20,0.539,0.331,0.561,0.515,0.548,0.252,0.224,north-northwest,3.3,Yes
2015/04/10,12:30,0.537,0.330,0.557,0.516,0.550,0.250,0.223,north,3.8,Yes
2015/04/10,12:40,0.537,0.331,0.556,0.511,0.549,0.251,0.223,north-northwest,3.6,Yes
2015/04/10,12:50,0.538,0.330,0.560,0.513,0.548,0.249,0.221,north,2.8,Yes
2015/04/10,13:00,0.533,0.328,0.554,0.510,0.548,0.249,0.220,north,2.8,Yes
2015/04/10,13:10,0.534,0.330,0.553,0.507,0.545,0.249,0.220,north,3.0,Yes
2015/04/10,13:20,0.531,0.330,0.554,0.510,0.543,0.248,0.220,north-northwest,3.0,Yes
2015/04/10,13:30,0.530,0.329,0.548,0.509,0.547,0.249,0.220,north,3.2,Yes
2015/04/10,13:40,0.533,0.328,0.547,0.506,0.545,0.249,0.219,north,3.3,Yes
2015/04/10,13:50,0.533,0.328,-,0.509,0.545,0.248,0.220,north,3.5,Yes
2015/04/10,14:00,0.529,0.327,-,0.507,0.546,0.248,0.218,north,3.4,Yes
2015/04/10,14:10,0.534,0.327,-,0.507,0.546,0.247,0.218,north,3.7,Yes
2015/04/10,14:20,0.530,0.327,-,0.508,0.545,0.247,0.218,north,3.5,Yes
2015/04/10,14:30,0.528,0.327,-,0.505,0.544,0.246,0.218,north,3.5,Yes
2015/04/10,14:40,0.531,0.326,-,0.505,0.543,0.247,0.218,north,3.9,Yes
2015/04/10,14:50,0.530,0.327,-,0.504,0.544,0.246,0.218,north,3.6,Yes
2015/04/10,15:00,0.528,0.325,-,0.501,0.545,0.246,0.217,north,3.7,Yes
2015/04/10,15:10,0.531,0.325,-,0.504,0.544,0.246,0.217,north,3.6,Yes
2015/04/10,15:20,0.527,0.327,-,0.504,0.545,0.247,0.215,north,3.3,Yes
2015/04/10,15:30,0.526,0.326,-,0.502,0.542,0.246,0.215,north,2.8,Yes
2015/04/10,15:40,0.528,0.325,0.544,0.504,0.542,0.246,0.218,north,2.7,Yes
2015/04/10,15:50,0.527,0.327,0.545,0.503,0.545,0.246,0.217,north,2.2,Yes
2015/04/10,16:00,0.530,0.326,0.544,0.501,0.543,0.245,0.217,north,3.2,Yes
2015/04/10,16:10,0.529,0.326,0.545,0.505,0.543,0.245,0.217,north,3.3,Yes
2015/04/10,16:20,0.526,0.327,0.543,0.502,0.545,0.246,0.216,north,3.4,Yes
2015/04/10,16:30,0.531,0.326,0.543,0.504,0.544,0.246,0.217,north,3.3,Yes
2015/04/10,16:40,0.528,0.325,0.546,0.505,0.545,0.245,0.217,north,4.0,Yes
2015/04/10,16:50,0.528,0.326,0.542,0.504,0.545,0.246,0.218,north,4.5,Yes
2015/04/10,17:00,0.529,0.324,0.545,0.503,0.545,0.245,0.216,north,4.4,Yes
2015/04/10,17:10,0.530,0.325,0.546,0.505,0.544,0.245,0.217,north,3.9,Yes
2015/04/10,17:20,0.528,0.326,0.542,0.503,0.545,0.246,0.217,north,3.9,Yes
2015/04/10,17:30,0.528,0.326,0.547,0.505,0.543,0.245,0.215,north,3.7,Yes
2015/04/10,17:40,0.529,0.326,0.546,0.504,0.545,0.246,0.216,north,3.4,Yes
2015/04/10,17:50,0.526,0.328,0.543,0.503,0.547,0.245,0.216,north,4.1,Yes
2015/04/10,18:00,0.529,0.324,0.546,0.505,0.543,0.245,0.217,north,3.8,Yes
2015/04/10,18:10,0.527,0.325,0.546,0.505,0.545,0.245,0.217,north,4.7,Yes
2015/04/10,18:20,0.527,0.326,0.545,0.504,0.546,0.245,0.216,north,5.0,Yes
2015/04/10,18:30,0.529,0.326,0.545,0.507,0.543,0.246,0.216,north,4.5,Yes
2015/04/10,18:40,0.526,0.326,0.544,0.503,0.543,0.247,0.216,north,5.0,Yes
2015/04/10,18:50,0.529,0.327,0.543,0.503,0.545,0.244,0.217,north,5.3,Yes
2015/04/10,19:00,0.528,0.325,0.545,0.505,0.541,0.246,0.217,north,4.7,Yes
2015/04/10,19:10,0.524,0.325,0.543,0.502,0.543,0.245,0.218,north,5.5,Yes
2015/04/10,19:20,0.528,0.326,0.542,0.501,0.544,0.245,0.215,north-northwest,5.6,Yes
2015/04/10,19:30,0.526,0.325,0.545,0.500,0.543,0.245,0.216,north-northwest,6.1,Yes
2015/04/10,19:40,0.527,0.327,0.544,0.500,0.541,0.246,0.216,north-northwest,6.3,Yes
2015/04/10,19:50,0.528,0.328,0.541,0.499,0.545,0.247,0.216,north,6.0,Yes
2015/04/10,20:00,0.529,0.326,0.542,0.500,0.542,0.246,0.216,north-northwest,5.9,Yes
2015/04/10,20:10,0.526,0.326,0.542,0.499,0.542,0.246,0.217,north-northwest,5.8,Yes
2015/04/10,20:20,0.529,0.326,0.541,0.501,0.544,0.245,0.216,north-northwest,6.4,Yes
2015/04/10,20:30,0.528,0.326,0.542,0.503,0.544,0.247,0.216,north,6.7,Yes
2015/04/10,20:40,0.524,0.327,0.544,0.500,0.544,0.246,0.215,north-northwest,6.2,Yes
2015/04/10,20:50,0.527,0.325,0.541,0.500,0.545,0.246,0.216,north-northwest,6.4,Yes
2015/04/10,21:00,0.525,0.327,0.545,0.504,0.542,0.246,0.215,north-northwest,7.3,Yes
2015/04/10,21:10,0.527,0.325,0.545,0.501,0.543,0.245,0.215,north-northwest,7.6,Yes
2015/04/10,21:20,0.528,0.327,0.542,0.499,0.544,0.246,0.216,north,7.0,Yes
2015/04/10,21:30,0.526,0.327,0.542,0.504,0.542,0.246,0.217,north-northwest,5.8,Yes
2015/04/10,21:40,0.526,0.325,0.543,0.502,0.542,0.245,0.216,north,6.2,Yes
2015/04/10,21:50,0.527,0.325,0.541,0.499,0.544,0.245,0.215,north,6.7,Yes
2015/04/10,22:00,0.526,0.326,0.543,0.500,0.543,0.245,0.217,north,7.1,Yes
2015/04/10,22:10,0.529,0.326,0.542,0.502,0.543,0.245,0.215,north-northwest,6.1,Yes
2015/04/10,22:20,0.525,0.326,0.541,0.500,0.543,0.244,0.216,north,6.4,Yes
2015/04/10,22:30,0.526,0.325,0.543,0.503,0.541,0.245,0.215,north,5.9,Yes
2015/04/10,22:40,0.529,0.325,0.540,0.501,0.542,0.245,0.217,north-northwest,6.1,Yes
2015/04/10,22:50,0.524,0.324,0.539,0.499,0.543,0.243,0.214,north,6.8,Yes
2015/04/10,23:00,0.525,0.325,0.541,0.501,0.540,0.244,0.214,north-northwest,6.6,Yes
2015/04/10,23:10,0.527,0.323,0.539,0.498,0.541,0.243,0.213,north-northwest,7.6,Yes
2015/04/10,23:20,0.521,0.325,0.535,0.494,0.538,0.244,0.213,north-northwest,7.7,Yes
2015/04/10,23:30,0.523,0.324,0.537,0.495,0.540,0.244,0.214,north-northwest,7.6,Yes
2015/04/10,23:40,0.525,0.324,0.538,0.495,0.540,0.246,0.217,north-northwest,7.8,Yes
2015/04/10,23:50,0.524,0.325,0.537,0.498,0.542,0.244,0.216,north-northwest,7.0,Yes
